[[{"header":{"parameterUnit":"m.s-1","parameterCategory":1,"la1":30.2991,"la2":30.254,"lo1":-89.0895,"lo2":-89.0444,"dy":0.0017,"dx":0.0017,"nx":28,"ny":28,"refTime":"2025-08-20T09:00:00:Z","depth":0,"parameterNumber":2,"parameterNumberName":"U-component_of_WINDS"},"data":[0,0,0,0,0,0,0,0,0,0,0,0,0,0,0,0,0,0,0,0,0,0,0,0,0,0,0,0,0,0,0,0,0,0,0,0,0,0,0,0,0,0,0,0,0,0,0,0,0,0,0,0,0,0,0,0,0,0,-1.4636,-1.4637,0,-1.4659,-1.4659,-1.466,-1.4624,-1.4623,-1.4622,-1.4621,-1.4643,-1.4645,-1.4647,0,0,0,0,0,0,0,0,0,0,0,0,0,-1.4562,-1.4563,-1.4636,-1.4637,-1.4637,-1.4659,-1.4659,-1.466,-1.4624,-1.4623,-1.4622,-1.462,-1.4643,-1.4645,-1.4647,0,0,0,0,0,0,0,0,0,0,0,0,0,-1.459,-1.4564,-1.4636,-1.4622,-1.4621,-1.4659,-1.4659,-1.466,-1.4625,-1.4623,-1.4621,-1.4619,-1.4642,-1.4644,-1.4647,-1.47,0,0,-1.4655,-1.4656,0,0,0,0,0,0,0,0,-1.4589,-1.4593,-1.4624,-1.4623,-1.4622,-1.4637,-1.4641,-1.4673,-1.4625,-1.4623,-1.4621,-1.4619,-1.4643,-1.4645,-1.4653,-1.4701,-1.4702,-1.4655,-1.4657,-1.4658,-1.4659,0,0,0,0,0,0,0,-1.4587,-1.4592,-1.4645,-1.4624,-1.4623,-1.4614,-1.4616,-1.4647,-1.4643,-1.4623,-1.4621,-1.4624,-1.4642,-1.4651,-1.4653,-1.4702,-1.4655,-1.4657,-1.4659,-1.466,-1.4794,-1.4796,0,0,0,0,0,0,-1.4587,-1.4591,-1.4644,-1.4646,-1.4601,-1.4617,-1.4619,-1.4634,-1.4642,-1.4642,-1.4626,-1.4622,-1.4647,-1.465,-1.4654,-1.4716,-1.4658,-1.466,-1.4662,-1.4792,-1.4795,-1.4797,0,0,0,0,0,0,-1.4585,-1.4592,-1.4644,-1.4618,-1.4623,-1.462,-1.4637,-1.4635,-1.4644,-1.4644,-1.4643,-1.4636,-1.4646,-1.465,-1.4689,-1.4716,-1.4661,-1.4664,-1.479,-1.4793,-1.4796,-1.4841,0,0,0,0,0,0,-1.4583,-1.4592,-1.4612,-1.4618,-1.4625,-1.4678,-1.4639,-1.4637,-1.4649,-1.4645,-1.4653,-1.4653,-1.4645,-1.4685,-1.4691,-1.4719,-1.4666,-1.4787,-1.4791,-1.4795,-1.4837,-1.4845,-1.4852,0,0,0,0,0,-1.4581,-1.4623,-1.4613,-1.4619,-1.465,-1.468,-1.4683,-1.4673,-1.4652,-1.4671,-1.4671,-1.4653,-1.4713,-1.4689,-1.4696,-1.4725,-1.4785,-1.479,-1.4794,-1.4833,-1.4843,-1.4852,0,0,0,0,0,0,-1.4619,-1.4624,-1.4612,-1.4658,-1.4669,-1.4674,-1.4698,-1.4684,-1.4701,-1.4696,-1.4683,-1.4685,-1.4726,-1.473,-1.4703,-1.4776,-1.4745,-1.4751,-1.4773,-1.4782,-1.4789,-1.4787,-1.4668,0,0,0,0,0,-1.4633,-1.4657,-1.466,-1.47,-1.4706,-1.4702,-1.4714,-1.4705,-1.4716,-1.472,-1.4723,-1.4733,-1.4754,-1.4769,-1.4788,-1.4837,-1.4839,-1.4861,-1.4868,-1.4875,-1.488,-1.4906,-1.4916,-1.4811,-1.4811,-1.4811,0,0,-1.4662,-1.4667,-1.4683,-1.4708,-1.4715,-1.474,-1.4705,-1.4733,-1.4751,-1.4724,-1.476,-1.4763,-1.4774,-1.4818,-1.4837,-1.4822,-1.4909,-1.488,-1.4885,-1.4887,-1.4911,-1.4921,-1.493,-1.4814,-1.4814,-1.4813,0,0,-1.4726,-1.4733,-1.4767,-1.4776,-1.4787,-1.4784,-1.4793,-1.48,-1.4801,-1.4837,-1.4817,-1.4839,-1.4876,-1.4884,-1.4894,-1.4963,-1.4946,-1.497,-1.5009,-1.5035,-1.5043,-1.505,-1.5074,-1.5083,-1.4975,-1.4975,-1.4975,0,-1.476,-1.4797,-1.4787,-1.4816,-1.4827,-1.4805,-1.4839,-1.4848,-1.4865,-1.4873,-1.4856,-1.4902,-1.4908,-1.4953,-1.497,-1.4979,-1.4988,-1.4968,-1.5043,-1.505,-1.5056,-1.5079,-1.5088,-1.4978,-1.4978,-1.4977,-1.4977,0,-1.4838,-1.4864,-1.489,-1.4908,-1.4923,-1.4954,-1.4949,-1.4964,-1.4955,-1.4954,-1.4991,-1.4998,-1.5018,-1.5029,-1.502,-1.5074,-1.5063,-1.5045,-1.5013,-1.5069,-1.509,-1.5099,-1.4982,-1.4981,-1.498,-1.4979,0,0,-1.4926,-1.4939,-1.4948,-1.4956,-1.4968,-1.4988,-1.5019,-1.5039,-1.5053,-1.5066,-1.5091,-1.5124,-1.5107,-1.5117,-1.5109,-1.5132,-1.5186,-1.511,-1.511,-1.5123,-1.5245,-1.5259,-1.5269,-1.5176,-1.5177,-1.5179,-1.5244,0,-1.499,-1.5043,-1.5035,-1.5087,-1.511,-1.509,-1.5117,-1.5127,-1.5127,-1.5147,-1.5147,-1.517,-1.5146,-1.5153,-1.5174,-1.5175,-1.521,-1.517,-1.5199,-1.52,-1.5195,-1.528,-1.5294,-1.5355,-1.5252,-1.5254,-1.5255,0,-1.5071,-1.5088,-1.5142,-1.515,-1.516,-1.5184,-1.5202,-1.5222,-1.5233,-1.5232,-1.5245,-1.5233,-1.5263,-1.5233,-1.5275,-1.5248,-1.5259,-1.5261,-1.5264,-1.5265,-1.523,-1.5283,-1.5375,-1.5384,-1.5268,-1.5267,-1.5266,0,-1.5129,-1.5165,-1.5202,-1.5209,-1.522,-1.5238,-1.5243,-1.5253,-1.5266,-1.5282,-1.529,-1.531,-1.5321,-1.5336,-1.533,-1.5308,-1.5373,-1.5342,-1.5373,-1.5373,-1.5386,-1.5385,-1.548,-1.5395,-1.5395,-1.5395,-1.5395,0,-1.52,-1.5234,-1.5228,-1.525,-1.5288,-1.5279,-1.5315,-1.5318,-1.5327,-1.535,-1.5334,-1.5356,-1.5347,-1.5368,-1.5364,-1.5399,-1.5404,-1.5404,-1.5402,-1.5404,-1.5404,-1.5411,-1.5406,-1.5398,-1.5397,-1.5397,-1.5396,0,-1.5271,-1.5268,-1.5307,-1.5315,-1.5317,-1.5344,-1.5351,-1.5372,-1.5371,-1.54,-1.5407,-1.5406,-1.543,-1.5426,-1.5452,-1.5449,-1.5494,-1.5487,-1.549,-1.5488,-1.5519,-1.5515,-1.562,-1.5633,-1.5541,-1.5542,-1.5543,0,-1.5316,-1.5341,-1.5352,-1.5366,-1.5373,-1.5396,-1.5409,-1.5402,-1.5416,-1.5432,-1.5451,-1.5474,-1.5492,-1.5532,-1.5533,-1.5554,-1.5547,-1.5582,-1.555,-1.5552,-1.5546,-1.5545,-1.5547,-1.5588,-1.5589,-1.559,-1.5591,0,-1.5396,-1.5393,-1.5413,-1.5433,-1.545,-1.5465,-1.5479,-1.5491,-1.5485,-1.5502,-1.5527,-1.5541,-1.5569,-1.5591,-1.5611,-1.5616,-1.5603,-1.5601,-1.5609,-1.5612,-1.5612,-1.5611,-1.5506,-1.5599,-1.5598,-1.5597,-1.5597,-1.5597,-1.5454,-1.5475,-1.5487,-1.551,-1.5519,-1.5533,-1.5553,-1.5555,-1.5576,-1.5598,-1.5593,-1.5621,-1.5632,-1.5657,-1.5665,-1.5686,-1.5673,-1.5685,-1.5688,-1.5691,-1.5694,-1.561,-1.569,-1.569,-1.569,-1.5689,-1.5689,0,-1.5532,-1.5539,-1.556,-1.558,-1.5598,-1.5585,-1.5599,-1.5615,-1.564,-1.5652,-1.567,-1.5699,-1.5721,-1.5726,-1.5747,-1.5764,-1.5758,-1.5769,-1.5767,-1.5769,-1.5705,-1.5695,-1.5774,-1.5774,-1.5774,-1.5774,-1.5774,-1.5774,-1.5575,-1.5611,-1.561,-1.5651,-1.5657,-1.5684,-1.5694,-1.5706,-1.5716,-1.5749,-1.5767,-1.577,-1.5779,-1.5801,-1.5821,-1.5822,-1.583,-1.5844,-1.5842,-1.5782,-1.5773,-1.5765,-1.5756,-1.5846,-1.5846,-1.5904,-1.5905,-1.5905]},{"header":{"parameterUnit":"m.s-1","parameterCategory":1,"la1":30.2991,"la2":30.254,"lo1":-89.0895,"lo2":-89.0444,"dy":0.0017,"dx":0.0017,"nx":28,"ny":28,"refTime":"2025-08-20T09:00:00:Z","depth":0,"parameterNumber":3,"parameterNumberName":"V-component_of_WINDS"},"data":[0,0,0,0,0,0,0,0,0,0,0,0,0,0,0,0,0,0,0,0,0,0,0,0,0,0,0,0,0,0,0,0,0,0,0,0,0,0,0,0,0,0,0,0,0,0,0,0,0,0,0,0,0,0,0,0,0,0,-0.4931,-0.4932,0,-0.4995,-0.4996,-0.4996,-0.5027,-0.5027,-0.5027,-0.5027,-0.5095,-0.5097,-0.5099,0,0,0,0,0,0,0,0,0,0,0,0,0,-0.4837,-0.4839,-0.4931,-0.4932,-0.4932,-0.4995,-0.4996,-0.4997,-0.5027,-0.5027,-0.5027,-0.5027,-0.5094,-0.5097,-0.5099,0,0,0,0,0,0,0,0,0,0,0,0,0,-0.4887,-0.4839,-0.4931,-0.4955,-0.4958,-0.4995,-0.4996,-0.4997,-0.5027,-0.5027,-0.5027,-0.5027,-0.5094,-0.5096,-0.5099,-0.5117,0,0,-0.5108,-0.5109,0,0,0,0,0,0,0,0,-0.4884,-0.4891,-0.4951,-0.4954,-0.4957,-0.5003,-0.4988,-0.5037,-0.5027,-0.5001,-0.5027,-0.5027,-0.5065,-0.507,-0.5082,-0.512,-0.5123,-0.5108,-0.5109,-0.5111,-0.5111,0,0,0,0,0,0,0,-0.4881,-0.4888,-0.4956,-0.4952,-0.4955,-0.4964,-0.4971,-0.4997,-0.5032,-0.5003,-0.5006,-0.5013,-0.5066,-0.5079,-0.5084,-0.5124,-0.5108,-0.511,-0.5112,-0.5113,-0.5181,-0.5181,0,0,0,0,0,0,-0.4873,-0.4885,-0.4954,-0.4958,-0.492,-0.4965,-0.4973,-0.4988,-0.5032,-0.5039,-0.5013,-0.5014,-0.5075,-0.5081,-0.5086,-0.511,-0.5111,-0.5113,-0.5115,-0.5181,-0.5181,-0.5181,0,0,0,0,0,0,-0.4871,-0.4879,-0.4952,-0.4922,-0.4932,-0.4967,-0.4984,-0.4989,-0.5002,-0.5039,-0.5046,-0.5019,-0.5075,-0.5082,-0.5109,-0.5113,-0.5114,-0.5117,-0.5181,-0.5181,-0.5181,-0.5159,0,0,0,0,0,0,-0.4868,-0.4878,-0.4885,-0.4922,-0.4934,-0.4973,-0.4984,-0.4991,-0.5007,-0.5009,-0.5047,-0.5053,-0.5075,-0.5105,-0.5112,-0.5117,-0.5119,-0.518,-0.5181,-0.5181,-0.5159,-0.5158,-0.5157,0,0,0,0,0,-0.4865,-0.4877,-0.4885,-0.4893,-0.4943,-0.4973,-0.498,-0.5004,-0.5007,-0.5014,-0.5038,-0.5052,-0.5111,-0.5107,-0.5115,-0.5122,-0.518,-0.5181,-0.5181,-0.516,-0.5158,-0.5157,0,0,0,0,0,0,-0.484,-0.4882,-0.4892,-0.4916,-0.494,-0.4978,-0.4988,-0.5001,-0.5026,-0.5027,-0.5057,-0.5065,-0.509,-0.5108,-0.5103,-0.5141,-0.5147,-0.5149,-0.5128,-0.5127,-0.5126,-0.5121,-0.5121,0,0,0,0,0,-0.4837,-0.4857,-0.4893,-0.4911,-0.4923,-0.4953,-0.4967,-0.4984,-0.5011,-0.5021,-0.5047,-0.5073,-0.5098,-0.5114,-0.5138,-0.5162,-0.5171,-0.517,-0.5169,-0.5168,-0.517,-0.5183,-0.5184,-0.5182,-0.5182,-0.5182,0,0,-0.4832,-0.4857,-0.4868,-0.4907,-0.4928,-0.4949,-0.4962,-0.4984,-0.5,-0.5025,-0.5052,-0.5071,-0.5103,-0.5128,-0.514,-0.5144,-0.5172,-0.5168,-0.5167,-0.517,-0.5184,-0.5184,-0.5184,-0.5182,-0.5182,-0.5182,0,0,-0.4833,-0.4854,-0.4871,-0.4891,-0.4922,-0.4942,-0.4946,-0.4982,-0.4996,-0.5022,-0.5042,-0.5062,-0.5104,-0.5125,-0.5141,-0.515,-0.5164,-0.5157,-0.5152,-0.5165,-0.5165,-0.5166,-0.5169,-0.517,-0.5158,-0.5158,-0.5158,0,-0.4822,-0.4854,-0.4878,-0.4898,-0.4915,-0.4938,-0.4956,-0.4975,-0.5013,-0.5024,-0.5027,-0.508,-0.5103,-0.5133,-0.5135,-0.5148,-0.5154,-0.5153,-0.5163,-0.5164,-0.5164,-0.5168,-0.5169,-0.5157,-0.5157,-0.5158,-0.5158,0,-0.484,-0.4861,-0.4871,-0.4906,-0.4924,-0.4943,-0.4971,-0.4986,-0.5,-0.502,-0.5047,-0.5075,-0.5106,-0.5114,-0.5129,-0.5147,-0.5149,-0.5157,-0.5164,-0.5163,-0.5167,-0.5168,-0.5156,-0.5156,-0.5157,-0.5157,0,0,-0.4827,-0.4875,-0.4878,-0.4894,-0.493,-0.4947,-0.4968,-0.4997,-0.5009,-0.5034,-0.5053,-0.5087,-0.5095,-0.5114,-0.5131,-0.5143,-0.5148,-0.515,-0.5151,-0.5149,-0.5169,-0.5163,-0.5164,-0.5157,-0.5157,-0.5158,-0.5167,0,-0.4833,-0.487,-0.4892,-0.4919,-0.494,-0.4962,-0.4979,-0.5004,-0.5022,-0.5043,-0.5065,-0.5088,-0.5097,-0.5109,-0.5121,-0.5144,-0.5152,-0.5144,-0.5175,-0.5176,-0.5167,-0.5166,-0.5159,-0.5166,-0.5168,-0.5169,-0.5169,0,-0.4845,-0.4869,-0.4898,-0.4931,-0.4941,-0.4956,-0.4985,-0.5004,-0.5032,-0.5045,-0.5065,-0.5083,-0.5106,-0.511,-0.5142,-0.5136,-0.515,-0.5163,-0.5164,-0.5168,-0.5172,-0.517,-0.5169,-0.517,-0.5171,-0.5171,-0.5171,0,-0.4834,-0.4873,-0.4895,-0.4908,-0.4948,-0.4958,-0.4975,-0.5003,-0.5019,-0.5044,-0.5055,-0.5082,-0.5097,-0.5119,-0.5143,-0.5144,-0.5173,-0.518,-0.5185,-0.5185,-0.5191,-0.519,-0.5192,-0.5199,-0.5199,-0.5199,-0.5199,0,-0.4838,-0.4855,-0.4891,-0.4904,-0.4924,-0.495,-0.4969,-0.4988,-0.5013,-0.5031,-0.5052,-0.5069,-0.5101,-0.5122,-0.5141,-0.5165,-0.5172,-0.5184,-0.5189,-0.5182,-0.518,-0.5192,-0.5192,-0.5199,-0.5199,-0.5199,-0.5199,0,-0.4829,-0.4853,-0.4879,-0.4913,-0.4922,-0.4936,-0.4966,-0.498,-0.5,-0.5023,-0.503,-0.5062,-0.5088,-0.5114,-0.515,-0.5163,-0.5186,-0.5193,-0.5176,-0.5179,-0.5184,-0.5183,-0.5193,-0.5196,-0.52,-0.52,-0.52,0,-0.483,-0.4844,-0.4879,-0.4893,-0.4909,-0.493,-0.4946,-0.4972,-0.4988,-0.5021,-0.5032,-0.5059,-0.5082,-0.5123,-0.5149,-0.5176,-0.5184,-0.5186,-0.5189,-0.5181,-0.5185,-0.5184,-0.5185,-0.5185,-0.5185,-0.5185,-0.5185,0,-0.483,-0.4841,-0.4863,-0.4889,-0.4907,-0.4929,-0.4952,-0.4962,-0.4992,-0.5009,-0.5036,-0.5053,-0.5089,-0.5116,-0.5146,-0.5165,-0.518,-0.5183,-0.5186,-0.518,-0.517,-0.5175,-0.5174,-0.5183,-0.5183,-0.5183,-0.5184,-0.5184,-0.4827,-0.484,-0.4866,-0.489,-0.491,-0.493,-0.4946,-0.4967,-0.4989,-0.5019,-0.5033,-0.5059,-0.5087,-0.5129,-0.5147,-0.5169,-0.5173,-0.5177,-0.5178,-0.5179,-0.5178,-0.5166,-0.5175,-0.5175,-0.5175,-0.5175,-0.5175,0,-0.4828,-0.4846,-0.4868,-0.4898,-0.4917,-0.4928,-0.4954,-0.4969,-0.4991,-0.5016,-0.5038,-0.5068,-0.5094,-0.5122,-0.515,-0.5162,-0.517,-0.5169,-0.5169,-0.5173,-0.5172,-0.5167,-0.5162,-0.5162,-0.5162,-0.5162,-0.5162,-0.5162,-0.4831,-0.4854,-0.4868,-0.49,-0.4919,-0.4944,-0.4957,-0.4977,-0.4996,-0.5028,-0.505,-0.5068,-0.5094,-0.5124,-0.5149,-0.5156,-0.5166,-0.5163,-0.5173,-0.5172,-0.5173,-0.5174,-0.5169,-0.5165,-0.5165,-0.5171,-0.5171,-0.5171]}]]